Hourly Weather Algiers

Today, 8 July, Wednesday

Time Temperature Precipitation Wind Pressure Humidity
00:00 +28°C° 0 mm 3 mps 749 mmHg 47%
01:00 +27°C° 0 mm 3 mps 749 mmHg 48%
02:00 +27°C° 0 mm 3 mps 748 mmHg 49%
03:00 +27°C° 0 mm 3 mps 748 mmHg 50%
04:00 +27°C° 0 mm 3 mps 748 mmHg 50%
05:00 +27°C° 0 mm 4 mps 749 mmHg 50%
06:00 +28°C° 0 mm 4 mps 749 mmHg 50%
07:00 +29°C° 0 mm 4 mps 749 mmHg 46%
08:00 +32°C° 0 mm 4 mps 749 mmHg 42%
09:00 +33°C° 0 mm 5 mps 749 mmHg 37%
10:00 +34°C° 0 mm 5 mps 749 mmHg 38%
11:00 +34°C° 0 mm 6 mps 749 mmHg 39%
12:00 +34°C° 0 mm 7 mps 749 mmHg 40%
13:00 +34°C° 0 mm 7 mps 748 mmHg 40%
14:00 +34°C° 0 mm 7 mps 748 mmHg 40%
15:00 +34°C° 0 mm 7 mps 748 mmHg 40%
16:00 +33°C° 0 mm 7 mps 748 mmHg 41%
17:00 +33°C° 0 mm 6 mps 747 mmHg 43%
18:00 +32°C° 0 mm 6 mps 747 mmHg 44%
19:00 +30°C° 0 mm 6 mps 748 mmHg 47%
20:00 +29°C° 0 mm 5 mps 748 mmHg 49%
21:00 +28°C° 0 mm 5 mps 749 mmHg 51%
22:00 +28°C° 0 mm 5 mps 749 mmHg 54%
23:00 +27°C° 0 mm 6 mps 748 mmHg 57%

Tomorrow, 9 July, Thursday

Time Temperature Precipitation Wind Pressure Humidity
00:00 +27°C° 0 mm 6 mps 748 mmHg 60%
01:00 +27°C° 0 mm 6 mps 748 mmHg 55%
02:00 +27°C° 0 mm 5 mps 747 mmHg 51%
03:00 +28°C° 0 mm 5 mps 747 mmHg 47%
04:00 +28°C° 0 mm 5 mps 747 mmHg 45%
05:00 +29°C° 0 mm 4 mps 747 mmHg 44%
06:00 +29°C° 0 mm 4 mps 747 mmHg 42%
07:00 +32°C° 0 mm 4 mps 747 mmHg 39%
08:00 +34°C° 0 mm 4 mps 747 mmHg 35%
09:00 +36°C° 0 mm 4 mps 748 mmHg 31%
10:00 +36°C° 0 mm 5 mps 748 mmHg 31%
11:00 +37°C° 0 mm 5 mps 748 mmHg 31%
12:00 +38°C° 0 mm 6 mps 747 mmHg 32%
13:00 +38°C° 0 mm 6 mps 747 mmHg 32%
14:00 +36°C° 0 mm 6 mps 747 mmHg 33%
15:00 +36°C° 0 mm 6 mps 746 mmHg 34%
16:00 +35°C° 0 mm 5 mps 746 mmHg 37%
17:00 +34°C° 0 mm 5 mps 746 mmHg 41%
18:00 +33°C° 0 mm 5 mps 746 mmHg 44%
19:00 +32°C° 0 mm 4 mps 746 mmHg 48%
20:00 +30°C° 0 mm 4 mps 747 mmHg 51%
21:00 +29°C° 0 mm 4 mps 747 mmHg 54%
22:00 +29°C° 0 mm 3 mps 747 mmHg 52%
23:00 +29°C° 0 mm 3 mps 746 mmHg 49%

Day after tomorrow, 10 July, Friday

Time Temperature Precipitation Wind Pressure Humidity
00:00 +29°C° 0 mm 3 mps 746 mmHg 47%
01:00 +28°C° 0 mm 4 mps 746 mmHg 59%
02:00 +26°C° 0 mm 5 mps 746 mmHg 71%
03:00 +24°C° 0 mm 6 mps 746 mmHg 83%
04:00 +25°C° 0 mm 5 mps 746 mmHg 82%
05:00 +26°C° 0 mm 5 mps 747 mmHg 81%
06:00 +26°C° 0 mm 4 mps 747 mmHg 80%
07:00 +27°C° 0 mm 4 mps 747 mmHg 75%
08:00 +28°C° 0 mm 4 mps 747 mmHg 70%
09:00 +29°C° 0 mm 4 mps 747 mmHg 65%
10:00 +32°C° 0 mm 5 mps 747 mmHg 59%
11:00 +33°C° 0 mm 6 mps 747 mmHg 54%
12:00 +34°C° 0 mm 7 mps 747 mmHg 48%
13:00 +35°C° 0 mm 6 mps 746 mmHg 45%
14:00 +35°C° 0 mm 6 mps 746 mmHg 41%
15:00 +36°C° 0 mm 5 mps 746 mmHg 37%
16:00 +35°C° 0 mm 6 mps 746 mmHg 39%
17:00 +34°C° 0 mm 6 mps 746 mmHg 40%
18:00 +33°C° 0 mm 7 mps 746 mmHg 41%
19:00 +33°C° 0 mm 5 mps 746 mmHg 42%
20:00 +32°C° 0 mm 4 mps 746 mmHg 43%
21:00 +31°C° 0 mm 3 mps 746 mmHg 44%
22:00 +31°C° 0 mm 3 mps 746 mmHg 44%
23:00 +30°C° 0 mm 2 mps 746 mmHg 45%

11 July, Saturday

Time Temperature Precipitation Wind Pressure Humidity
00:00 +30°C° 0 mm 2 mps 745 mmHg 45%
01:00 +29°C° 0 mm 2 mps 745 mmHg 49%
02:00 +29°C° 0 mm 2 mps 745 mmHg 53%
03:00 +28°C° 0 mm 2 mps 745 mmHg 56%
04:00 +28°C° 0 mm 2 mps 745 mmHg 57%
05:00 +28°C° 0 mm 2 mps 745 mmHg 58%
06:00 +28°C° 0 mm 2 mps 746 mmHg 59%
07:00 +29°C° 0 mm 2 mps 746 mmHg 57%
08:00 +30°C° 0 mm 3 mps 746 mmHg 54%
09:00 +33°C° 0 mm 3 mps 747 mmHg 51%
10:00 +33°C° 0 mm 3 mps 747 mmHg 51%
11:00 +33°C° 0 mm 4 mps 747 mmHg 51%
12:00 +33°C° 0 mm 4 mps 746 mmHg 51%
13:00 +33°C° 0 mm 5 mps 746 mmHg 52%
14:00 +33°C° 0 mm 5 mps 746 mmHg 53%
15:00 +33°C° 0 mm 5 mps 746 mmHg 54%
16:00 +32°C° 0 mm 5 mps 746 mmHg 59%
17:00 +30°C° 0 mm 5 mps 747 mmHg 63%
18:00 +29°C° 0 mm 5 mps 747 mmHg 67%
19:00 +28°C° 0 mm 5 mps 747 mmHg 72%
20:00 +27°C° 0 mm 4 mps 748 mmHg 78%
21:00 +26°C° 0 mm 4 mps 748 mmHg 83%
22:00 +25°C° 0 mm 4 mps 748 mmHg 83%
23:00 +25°C° 0 mm 4 mps 748 mmHg 84%

12 July, Sunday

Time Temperature Precipitation Wind Pressure Humidity
00:00 +25°C° 0 mm 4 mps 748 mmHg 85%
01:00 +25°C° 0 mm 4 mps 748 mmHg 84%
02:00 +25°C° 0 mm 3 mps 747 mmHg 84%
03:00 +25°C° 0 mm 3 mps 747 mmHg 83%
04:00 +25°C° 0 mm 4 mps 747 mmHg 79%
05:00 +26°C° 0 mm 4 mps 747 mmHg 76%
06:00 +26°C° 0 mm 4 mps 747 mmHg 73%
07:00 +28°C° 0 mm 5 mps 748 mmHg 66%
08:00 +29°C° 0 mm 5 mps 748 mmHg 60%
09:00 +32°C° 0 mm 5 mps 748 mmHg 54%
10:00 +33°C° 0 mm 6 mps 748 mmHg 53%
11:00 +33°C° 0 mm 6 mps 748 mmHg 52%
12:00 +34°C° 0 mm 7 mps 748 mmHg 51%
13:00 +34°C° 0 mm 7 mps 747 mmHg 50%
14:00 +34°C° 0 mm 7 mps 747 mmHg 49%
15:00 +34°C° 0 mm 8 mps 747 mmHg 48%
16:00 +33°C° 0 mm 8 mps 747 mmHg 50%
17:00 +32°C° 0 mm 8 mps 747 mmHg 52%
18:00 +31°C° 0 mm 8 mps 746 mmHg 54%
19:00 +30°C° 0 mm 7 mps 747 mmHg 53%
20:00 +30°C° 0 mm 7 mps 747 mmHg 52%
21:00 +30°C° 0 mm 6 mps 747 mmHg 50%
22:00 +30°C° 0 mm 5 mps 747 mmHg 48%
23:00 +30°C° 0 mm 4 mps 746 mmHg 45%

13 July, Monday

Time Temperature Precipitation Wind Pressure Humidity
00:00 +30°C° 0 mm 4 mps 746 mmHg 42%
01:00 +30°C° 0 mm 4 mps 746 mmHg 44%
02:00 +29°C° 0 mm 4 mps 745 mmHg 46%
03:00 +29°C° 0 mm 4 mps 745 mmHg 48%
04:00 +29°C° 0 mm 4 mps 745 mmHg 51%
05:00 +29°C° 0 mm 3 mps 745 mmHg 53%
06:00 +29°C° 0 mm 3 mps 746 mmHg 55%
07:00 +30°C° 0 mm 3 mps 746 mmHg 54%
08:00 +31°C° 0 mm 3 mps 746 mmHg 52%
09:00 +33°C° 0 mm 3 mps 747 mmHg 51%
10:00 +33°C° 0 mm 3 mps 747 mmHg 52%
11:00 +33°C° 0 mm 4 mps 746 mmHg 52%
12:00 +33°C° 0 mm 4 mps 746 mmHg 53%
13:00 +32°C° 0 mm 4 mps 746 mmHg 56%
14:00 +32°C° 0 mm 4 mps 746 mmHg 58%
15:00 +30°C° 0 mm 4 mps 745 mmHg 61%
16:00 +30°C° 0 mm 3 mps 745 mmHg 63%
17:00 +29°C° 0 mm 3 mps 745 mmHg 65%
18:00 +28°C° 0 mm 2 mps 746 mmHg 67%
19:00 +28°C° 0 mm 2 mps 746 mmHg 71%
20:00 +27°C° 0 mm 2 mps 746 mmHg 76%
21:00 +26°C° 0 mm 2 mps 747 mmHg 80%
22:00 +26°C° 0 mm 1 mps 747 mmHg 81%
23:00 +25°C° 0 mm 1 mps 747 mmHg 83%
Show more